Tracking 19795 objects as of 18-Jul-2019
HD Live streaming from Space Station
objects crossing your sky now

FENGYUN 1C DEB

Track FENGYUN 1C DEB now!
10-day predictions


NORAD ID: 33745
Int'l Code: 1999-025DJJ
Perigee: 820.4 km
Apogee: 915.1 km
Inclination: 99.0 °
Period: 102.2 minutes
Semi major axis: 7238 km
RCS: 0.0047 m2 (small)
Launch date: May 10, 1999
Source: People's Republic of China (PRC)
Launch site: Taiyaun Space Center, China (TSC)

Note: This is SATELLITE DEBRIS
aabbcc
Your satellite tracking list
Your tracking list is empty




NASA's NSSDC Master Catalog

Two Line Element Set (TLE):
1 33745U 99025DJJ 19195.08300361 +.00000306 +00000-0 +19637-3 0  9991
2 33745 099.0486 155.3641 0065381 027.0785 333.3771 14.09630439328916
Source of the keplerian elements: AFSPC